When you browse on this site, cookies collect data to enhance your experience and personalize the content and advertising you see.
Visit our Privacy Policy to learn more. By continuing to use the site, you agree to this use of cookies and data.
  • In Hungary
  • List of Countries
  • For 7 days
  • Water Temperature
  • Satellite Maps
  • Weather Map
  • News
  • Weather Widgets
  • user-avatar
    Login

    Hourly Weather Mozyndor

    Today, 17 November, Saturday

    Time Temperature Precipitation Wind Pressure Humidity
    00:00 +2°C° 0 mm 3 mps 751 mmHg 96%
    01:00 +2°C° 0 mm 3 mps 751 mmHg 97%
    02:00 +3°C° 0 mm 2 mps 751 mmHg 97%
    03:00 +2°C° 0 mm 2 mps 750 mmHg 97%
    04:00 +1°C° 0.2 mm 3 mps 750 mmHg 97%
    05:00 +1°C° 0.2 mm 3 mps 749 mmHg 97%
    06:00 +1°C° 0.2 mm 3 mps 748 mmHg 96%
    07:00 +1°C° 0.3 mm 3 mps 747 mmHg 96%
    08:00 +1°C° 0.3 mm 3 mps 747 mmHg 95%
    09:00 +2°C° 0.3 mm 3 mps 746 mmHg 95%
    10:00 +2°C° 0.1 mm 3 mps 745 mmHg 95%
    11:00 +2°C° 0.1 mm 3 mps 745 mmHg 95%
    12:00 +2°C° 0.1 mm 3 mps 744 mmHg 95%
    13:00 +2°C° 0.3 mm 3 mps 744 mmHg 95%
    14:00 +2°C° 0.3 mm 3 mps 743 mmHg 95%
    15:00 +2°C° 0.3 mm 3 mps 742 mmHg 95%
    16:00 +2°C° 0.3 mm 3 mps 742 mmHg 95%
    17:00 +1°C° 0.3 mm 3 mps 742 mmHg 96%
    18:00 +2°C° 0.3 mm 2 mps 741 mmHg 96%
    19:00 +2°C° 0.1 mm 2 mps 741 mmHg 96%
    20:00 +2°C° 0.1 mm 2 mps 741 mmHg 97%
    21:00 +2°C° 0.1 mm 2 mps 741 mmHg 97%
    22:00 +2°C° 0.1 mm 2 mps 741 mmHg 97%
    23:00 +2°C° 0.1 mm 2 mps 741 mmHg 97%

    Tomorrow, 18 November, Sunday

    Time Temperature Precipitation Wind Pressure Humidity
    00:00 +2°C° 0.1 mm 2 mps 741 mmHg 97%
    01:00 +1°C° 0.1 mm 2 mps 741 mmHg 98%
    02:00 +2°C° 0.1 mm 1 mps 741 mmHg 98%
    03:00 +2°C° 0.1 mm 1 mps 741 mmHg 98%
    04:00 +2°C° 0 mm 1 mps 741 mmHg 98%
    05:00 +2°C° 0 mm 1 mps 741 mmHg 98%
    06:00 +2°C° 0 mm 1 mps 742 mmHg 98%
    07:00 +2°C° 0 mm 1 mps 742 mmHg 98%
    08:00 +2°C° 0 mm 1 mps 743 mmHg 97%
    09:00 +2°C° 0 mm 1 mps 743 mmHg 97%
    10:00 +1°C° 0 mm 2 mps 744 mmHg 96%
    11:00 +1°C° 0 mm 2 mps 745 mmHg 95%
    12:00 +1°C° 0 mm 3 mps 746 mmHg 93%
    13:00 0°C° 0.1 mm 3 mps 746 mmHg 91%
    14:00 -1°C° 0.1 mm 4 mps 747 mmHg 89%
    15:00 -1°C° 0.1 mm 4 mps 748 mmHg 87%
    16:00 -2°C° 0 mm 4 mps 749 mmHg 85%
    17:00 -3°C° 0 mm 4 mps 750 mmHg 84%
    18:00 -5°C° 0 mm 5 mps 751 mmHg 82%
    19:00 -4°C° 0 mm 4 mps 751 mmHg 81%
    20:00 -4°C° 0 mm 4 mps 752 mmHg 80%
    21:00 -4°C° 0 mm 4 mps 753 mmHg 80%
    22:00 -5°C° 0 mm 4 mps 753 mmHg 80%
    23:00 -5°C° 0 mm 4 mps 754 mmHg 80%

    Day after tomorrow, 19 November, Monday

    Time Temperature Precipitation Wind Pressure Humidity
    00:00 -5°C° 0 mm 4 mps 755 mmHg 80%
    01:00 -7°C° 0 mm 4 mps 755 mmHg 79%
    02:00 -7°C° 0 mm 4 mps 756 mmHg 79%
    03:00 -6°C° 0 mm 3 mps 756 mmHg 79%
    04:00 -6°C° 0 mm 3 mps 757 mmHg 78%
    05:00 -6°C° 0 mm 3 mps 757 mmHg 77%
    06:00 -6°C° 0 mm 3 mps 757 mmHg 77%
    07:00 -6°C° 0 mm 3 mps 757 mmHg 76%
    08:00 -6°C° 0 mm 2 mps 758 mmHg 76%
    09:00 -6°C° 0 mm 2 mps 758 mmHg 75%
    10:00 -6°C° 0 mm 2 mps 758 mmHg 72%
    11:00 -6°C° 0 mm 2 mps 758 mmHg 69%
    12:00 -6°C° 0 mm 2 mps 758 mmHg 66%
    13:00 -6°C° 0 mm 2 mps 758 mmHg 66%
    14:00 -6°C° 0 mm 2 mps 758 mmHg 65%
    15:00 -6°C° 0 mm 2 mps 758 mmHg 64%
    16:00 -6°C° 0 mm 2 mps 757 mmHg 68%
    17:00 -6°C° 0 mm 3 mps 757 mmHg 71%
    18:00 -6°C° 0 mm 3 mps 757 mmHg 75%
    19:00 -6°C° 0 mm 3 mps 756 mmHg 76%
    20:00 -6°C° 0 mm 3 mps 756 mmHg 77%
    21:00 -5°C° 0 mm 3 mps 756 mmHg 78%
    22:00 -6°C° 0 mm 3 mps 755 mmHg 81%
    23:00 -6°C° 0 mm 3 mps 755 mmHg 84%

    20 November, Tuesday

    Time Temperature Precipitation Wind Pressure Humidity
    00:00 -6°C° 0 mm 3 mps 754 mmHg 86%
    01:00 -6°C° 0 mm 3 mps 754 mmHg 88%
    02:00 -5°C° 0 mm 4 mps 753 mmHg 89%
    03:00 -5°C° 0 mm 4 mps 753 mmHg 90%
    04:00 -5°C° 0 mm 4 mps 752 mmHg 88%
    05:00 -5°C° 0 mm 4 mps 752 mmHg 86%
    06:00 -4°C° 0 mm 4 mps 751 mmHg 84%
    07:00 -4°C° 0 mm 4 mps 750 mmHg 82%
    08:00 -4°C° 0 mm 4 mps 750 mmHg 80%
    09:00 -4°C° 0 mm 4 mps 749 mmHg 79%
    10:00 -5°C° 0 mm 5 mps 748 mmHg 74%
    11:00 -5°C° 0 mm 5 mps 748 mmHg 70%
    12:00 -4°C° 0 mm 5 mps 747 mmHg 66%
    13:00 -5°C° 0 mm 5 mps 746 mmHg 65%
    14:00 -5°C° 0 mm 5 mps 746 mmHg 64%
    15:00 -5°C° 0 mm 5 mps 745 mmHg 63%
    16:00 -5°C° 0 mm 5 mps 745 mmHg 65%
    17:00 -5°C° 0 mm 5 mps 744 mmHg 67%
    18:00 -5°C° 0 mm 5 mps 744 mmHg 69%
    19:00 -5°C° 0.1 mm 5 mps 744 mmHg 72%
    20:00 -5°C° 0.1 mm 5 mps 743 mmHg 75%
    21:00 -6°C° 0.1 mm 5 mps 743 mmHg 79%
    22:00 -5°C° 0.1 mm 5 mps 743 mmHg 79%
    23:00 -5°C° 0.1 mm 5 mps 742 mmHg 80%

    21 November, Wednesday

    Time Temperature Precipitation Wind Pressure Humidity
    00:00 -5°C° 0.1 mm 5 mps 742 mmHg 80%
    01:00 -4°C° 0.1 mm 5 mps 741 mmHg 81%
    02:00 -4°C° 0.1 mm 5 mps 741 mmHg 81%
    03:00 -4°C° 0.1 mm 5 mps 741 mmHg 82%
    04:00 -4°C° 0.2 mm 5 mps 741 mmHg 78%
    05:00 -4°C° 0.2 mm 6 mps 741 mmHg 75%
    06:00 -5°C° 0.2 mm 6 mps 742 mmHg 71%
    07:00 -5°C° 0 mm 6 mps 742 mmHg 69%
    08:00 -6°C° 0 mm 5 mps 742 mmHg 67%
    09:00 -7°C° 0 mm 5 mps 743 mmHg 65%
    10:00 -7°C° 0.1 mm 5 mps 743 mmHg 64%
    11:00 -7°C° 0.1 mm 5 mps 744 mmHg 63%
    12:00 -8°C° 0.1 mm 6 mps 744 mmHg 62%
    13:00 -8°C° 0.1 mm 5 mps 745 mmHg 63%
    14:00 -8°C° 0.1 mm 5 mps 745 mmHg 64%
    15:00 -8°C° 0.1 mm 4 mps 745 mmHg 65%
    16:00 -8°C° 0 mm 4 mps 745 mmHg 66%
    17:00 -9°C° 0 mm 4 mps 745 mmHg 67%
    18:00 -9°C° 0 mm 4 mps 744 mmHg 68%
    19:00 -9°C° 0 mm 4 mps 744 mmHg 72%
    20:00 -9°C° 0 mm 4 mps 744 mmHg 76%
    21:00 -8°C° 0 mm 4 mps 743 mmHg 81%
    22:00 -8°C° 0.1 mm 4 mps 743 mmHg 81%
    23:00 -8°C° 0.1 mm 4 mps 742 mmHg 82%

    22 November, Thursday

    Time Temperature Precipitation Wind Pressure Humidity
    00:00 -7°C° 0.1 mm 5 mps 742 mmHg 82%
    01:00 -7°C° 0.2 mm 4 mps 741 mmHg 83%
    02:00 -7°C° 0.2 mm 4 mps 741 mmHg 83%
    03:00 -7°C° 0.2 mm 4 mps 740 mmHg 84%
    04:00 -6°C° 0.1 mm 3 mps 740 mmHg 85%
    05:00 -7°C° 0.1 mm 3 mps 740 mmHg 86%
    06:00 -6°C° 0.1 mm 2 mps 739 mmHg 88%
    07:00 -8°C° 0 mm 3 mps 739 mmHg 89%
    08:00 -8°C° 0 mm 3 mps 740 mmHg 90%
    09:00 -8°C° 0 mm 3 mps 740 mmHg 91%
    10:00 -8°C° 0 mm 3 mps 740 mmHg 87%
    11:00 -8°C° 0 mm 3 mps 740 mmHg 84%
    12:00 -7°C° 0 mm 3 mps 740 mmHg 81%
    13:00 -8°C° 0 mm 3 mps 740 mmHg 82%
    14:00 -8°C° 0 mm 3 mps 740 mmHg 84%
    15:00 -8°C° 0 mm 3 mps 740 mmHg 86%
    16:00 -7°C° 0.1 mm 2 mps 739 mmHg 88%
    17:00 -7°C° 0.1 mm 2 mps 739 mmHg 89%
    18:00 -6°C° 0.1 mm 2 mps 738 mmHg 91%
    19:00 -6°C° 0.2 mm 2 mps 738 mmHg 92%
    20:00 -6°C° 0.2 mm 2 mps 738 mmHg 92%
    21:00 -6°C° 0.2 mm 2 mps 738 mmHg 93%
    22:00 -7°C° 0 mm 2 mps 738 mmHg 93%
    23:00 -8°C° 0 mm 2 mps 739 mmHg 94%
    Show more